BAW247 EGLL-SBGR

Flight info

Callsign BAW247
Flight time N/A
Altitude 34000
Route GASGU N514 ADKIK DCT JOZMA DCT GAPLI/M085F340 DCT EVBAK DCT TAMEL DCT GONAN DCT 40N017W 35N020W DCT RIPOD/N0511F290 DCT GOBEG/M085F360 DCT BAMUX/N0496F360 DCT TARIM DCT PINRU/N0494F370 UN741 NANIK/N0491F380 UN741 ERUGU UZ61 EVPIV/N0486F400 UZ61 REDAD UZ21 VUNOX
Aircraft A35K/H-SDE2E3GHIJ3J4J5LM1ORWXY/LB1D1

Departure

Time N/A
Airport London Heathrow Airport (EGLL)

Arrival

Time 2026-05-07 08:50
Airport São Paulo/Guarulhos–Governor André Franco Montoro International Airport (SBGR)
Time Latitude Longitude Altitude Speed Heading
2026-05-07 07:43 -17.38364 -43.15090 40129 ft 424 kts 196°
2026-05-07 07:44 -17.41201 -43.15949 40129 ft 424 kts 196°
2026-05-07 07:44 -17.46875 -43.17669 40129 ft 424 kts 196°
2026-05-07 07:45 -17.52543 -43.19389 40135 ft 424 kts 196°
2026-05-07 07:45 -17.58197 -43.21108 40134 ft 424 kts 196°
2026-05-07 07:46 -17.63875 -43.22827 40139 ft 424 kts 195°
2026-05-07 07:46 -17.69557 -43.24506 40139 ft 424 kts 195°
2026-05-07 07:47 -17.75218 -43.26198 40141 ft 424 kts 195°
2026-05-07 07:47 -17.80885 -43.27915 40142 ft 424 kts 196°
2026-05-07 07:48 -17.86544 -43.29641 40142 ft 424 kts 196°
2026-05-07 07:48 -17.92201 -43.31368 40140 ft 423 kts 196°
2026-05-07 07:49 -17.97858 -43.33092 40141 ft 423 kts 196°
2026-05-07 07:49 -18.03498 -43.34813 40143 ft 423 kts 195°
2026-05-07 07:50 -18.09127 -43.36525 40147 ft 423 kts 195°
2026-05-07 07:50 -18.14779 -43.38254 40150 ft 423 kts 196°
2026-05-07 07:51 -18.20432 -43.39984 40147 ft 423 kts 196°
2026-05-07 07:51 -18.25927 -43.42192 40152 ft 424 kts 205°
2026-05-07 07:52 -18.31167 -43.45041 40149 ft 423 kts 206°
2026-05-07 07:52 -18.36355 -43.47984 40154 ft 423 kts 206°
2026-05-07 07:53 -18.41532 -43.50930 40156 ft 423 kts 206°
2026-05-07 07:53 -18.46720 -43.53874 40156 ft 423 kts 206°
2026-05-07 07:54 -18.51903 -43.56806 40153 ft 423 kts 206°
2026-05-07 07:54 -18.57089 -43.59743 40155 ft 423 kts 206°
2026-05-07 07:55 -18.62278 -43.62685 40148 ft 423 kts 206°
2026-05-07 07:55 -18.67459 -43.65630 40153 ft 423 kts 206°
2026-05-07 07:56 -18.72647 -43.68575 40140 ft 423 kts 206°
2026-05-07 07:56 -18.77826 -43.71516 40144 ft 423 kts 206°
2026-05-07 07:57 -18.82969 -43.74440 40148 ft 423 kts 206°
2026-05-07 07:57 -18.88152 -43.77389 40140 ft 423 kts 206°
2026-05-07 07:58 -18.93331 -43.80339 40139 ft 423 kts 206°
2026-05-07 07:58 -18.98511 -43.83296 40128 ft 423 kts 206°
2026-05-07 07:59 -19.03694 -43.86255 40141 ft 423 kts 206°
2026-05-07 07:59 -19.08875 -43.89210 40142 ft 423 kts 206°
2026-05-07 08:00 -19.14050 -43.92161 40133 ft 423 kts 206°
2026-05-07 08:00 -19.19233 -43.95124 40140 ft 423 kts 207°
2026-05-07 08:01 -19.24405 -43.98083 40136 ft 422 kts 206°
2026-05-07 08:01 -19.29571 -44.01040 40150 ft 423 kts 207°
2026-05-07 08:02 -19.34713 -44.03984 40148 ft 423 kts 207°
2026-05-07 08:02 -19.39885 -44.06946 40135 ft 423 kts 207°
2026-05-07 08:03 -19.45063 -44.09917 40138 ft 423 kts 207°
2026-05-07 08:03 -19.50237 -44.12889 40142 ft 423 kts 207°
2026-05-07 08:04 -19.55409 -44.15860 40142 ft 423 kts 207°
2026-05-07 08:04 -19.60582 -44.18834 40145 ft 423 kts 207°
2026-05-07 08:05 -19.65753 -44.21813 40143 ft 423 kts 207°
2026-05-07 08:05 -19.70931 -44.24791 40155 ft 423 kts 207°
2026-05-07 08:06 -19.76107 -44.27769 40149 ft 423 kts 207°
2026-05-07 08:06 -19.81277 -44.30754 40146 ft 423 kts 207°
2026-05-07 08:07 -19.86447 -44.33742 40151 ft 423 kts 207°
2026-05-07 08:07 -19.91623 -44.36727 40157 ft 423 kts 207°
2026-05-07 08:08 -19.96795 -44.39712 40148 ft 423 kts 207°
2026-05-07 08:08 -20.01956 -44.42699 40147 ft 422 kts 207°
2026-05-07 08:09 -20.07119 -44.45692 40159 ft 423 kts 207°
2026-05-07 08:09 -20.12286 -44.48695 40153 ft 423 kts 208°
2026-05-07 08:10 -20.16175 -44.51439 40155 ft 424 kts 213°
2026-05-07 08:10 -20.20959 -44.55114 40153 ft 424 kts 214°
2026-05-07 08:11 -20.25713 -44.58830 40155 ft 424 kts 214°
2026-05-07 08:11 -20.30465 -44.62543 40149 ft 424 kts 214°
2026-05-07 08:12 -20.35222 -44.66257 40155 ft 424 kts 214°
2026-05-07 08:12 -20.39982 -44.69969 40157 ft 424 kts 214°
2026-05-07 08:13 -20.44745 -44.73686 40154 ft 424 kts 214°
2026-05-07 08:13 -20.49498 -44.77398 40155 ft 424 kts 214°
2026-05-07 08:14 -20.54218 -44.81093 40155 ft 423 kts 214°
2026-05-07 08:14 -20.58979 -44.84806 40164 ft 423 kts 214°
2026-05-07 08:15 -20.63734 -44.88521 40167 ft 424 kts 214°
2026-05-07 08:15 -20.68493 -44.92243 40161 ft 424 kts 214°
2026-05-07 08:16 -20.73238 -44.95958 40166 ft 423 kts 214°
2026-05-07 08:16 -20.77979 -44.99684 40161 ft 422 kts 214°
2026-05-07 08:17 -20.82714 -45.03408 40162 ft 422 kts 214°
2026-05-07 08:17 -20.87439 -45.07128 40163 ft 422 kts 214°
2026-05-07 08:18 -20.92167 -45.10854 40162 ft 422 kts 214°
2026-05-07 08:18 -20.96876 -45.14561 40163 ft 423 kts 214°
2026-05-07 08:19 -21.01610 -45.18290 40158 ft 422 kts 214°
2026-05-07 08:19 -21.06369 -45.22041 40159 ft 422 kts 214°
2026-05-07 08:20 -21.11070 -45.25751 40160 ft 423 kts 214°
2026-05-07 08:20 -21.15800 -45.29491 40159 ft 423 kts 215°
2026-05-07 08:21 -21.20528 -45.33231 40156 ft 423 kts 215°
2026-05-07 08:21 -21.25262 -45.36975 40157 ft 423 kts 215°
2026-05-07 08:22 -21.29989 -45.40720 40156 ft 422 kts 215°
2026-05-07 08:22 -21.34711 -45.44462 40157 ft 423 kts 215°
2026-05-07 08:23 -21.39444 -45.48217 40157 ft 423 kts 215°
2026-05-07 08:23 -21.44163 -45.51964 40156 ft 422 kts 215°
2026-05-07 08:24 -21.48890 -45.55720 40154 ft 423 kts 215°
2026-05-07 08:24 -21.53613 -45.59462 40156 ft 423 kts 215°
2026-05-07 08:25 -21.58376 -45.63190 40160 ft 423 kts 215°
2026-05-07 08:25 -21.63125 -45.66909 40154 ft 422 kts 215°
2026-05-07 08:26 -21.70216 -45.72484 39793 ft 416 kts 215°
2026-05-07 08:26 -21.72555 -45.74325 39033 ft 418 kts 215°
2026-05-07 08:26 -21.74913 -45.76182 38131 ft 421 kts 214°
2026-05-07 08:27 -21.77287 -45.78052 37134 ft 426 kts 214°
2026-05-07 08:27 -21.79701 -45.79952 36032 ft 434 kts 214°
2026-05-07 08:27 -21.82134 -45.81866 34971 ft 441 kts 214°
2026-05-07 08:27 -21.84628 -45.83829 33917 ft 448 kts 214°
2026-05-07 08:28 -21.87165 -45.85828 32796 ft 454 kts 214°
2026-05-07 08:28 -21.89718 -45.87844 31889 ft 455 kts 214°
2026-05-07 08:28 -21.92267 -45.89860 31079 ft 455 kts 214°
2026-05-07 08:28 -21.94797 -45.91864 30527 ft 449 kts 214°
2026-05-07 08:29 -21.97297 -45.93846 29937 ft 443 kts 214°
2026-05-07 08:29 -21.99766 -45.95802 29352 ft 437 kts 214°
2026-05-07 08:29 -22.02194 -45.97725 28809 ft 430 kts 214°
2026-05-07 08:29 -22.04573 -45.99608 28270 ft 424 kts 214°
2026-05-07 08:30 -22.06933 -46.01476 27769 ft 418 kts 214°
2026-05-07 08:30 -22.09262 -46.03320 27247 ft 413 kts 214°
2026-05-07 08:30 -22.11567 -46.05144 26744 ft 408 kts 214°
2026-05-07 08:30 -22.13844 -46.06950 26234 ft 404 kts 215°
2026-05-07 08:31 -22.16101 -46.08739 25746 ft 403 kts 215°
2026-05-07 08:31 -22.18360 -46.10538 25206 ft 403 kts 215°
2026-05-07 08:31 -22.20604 -46.12335 24710 ft 402 kts 215°
2026-05-07 08:31 -22.22850 -46.14130 24215 ft 401 kts 215°
2026-05-07 08:32 -22.25087 -46.15914 23707 ft 399 kts 215°
2026-05-07 08:32 -22.27322 -46.17695 23152 ft 398 kts 215°
2026-05-07 08:32 -22.29553 -46.19461 22637 ft 397 kts 214°
2026-05-07 08:32 -22.31931 -46.20936 22134 ft 395 kts 202°
2026-05-07 08:33 -22.34609 -46.21735 21693 ft 407 kts 189°
2026-05-07 08:33 -22.37441 -46.22205 21201 ft 415 kts 187°
2026-05-07 08:33 -22.40303 -46.22631 20659 ft 415 kts 187°
2026-05-07 08:33 -22.43159 -46.23058 20149 ft 413 kts 187°
2026-05-07 08:34 -22.46001 -46.23492 19665 ft 412 kts 187°
2026-05-07 08:34 -22.47880 -46.23780 19335 ft 411 kts 187°
2026-05-07 08:34 -22.50707 -46.24217 18841 ft 409 kts 187°
2026-05-07 08:34 -22.53507 -46.24651 18337 ft 405 kts 186°
2026-05-07 08:35 -22.57202 -46.25220 17769 ft 405 kts 186°
2026-05-07 08:35 -22.59981 -46.25650 17421 ft 404 kts 186°
2026-05-07 08:35 -22.62757 -46.26081 17083 ft 402 kts 186°
2026-05-07 08:35 -22.64588 -46.26366 16853 ft 401 kts 186°
2026-05-07 08:36 -22.67378 -46.26799 16493 ft 399 kts 186°
2026-05-07 08:36 -22.70086 -46.27222 16164 ft 398 kts 186°
2026-05-07 08:36 -22.72820 -46.27647 15820 ft 396 kts 186°
2026-05-07 08:36 -22.75544 -46.28070 15468 ft 395 kts 186°
2026-05-07 08:37 -22.78240 -46.28691 15124 ft 396 kts 197°
2026-05-07 08:37 -22.80731 -46.29951 14782 ft 396 kts 207°
2026-05-07 08:37 -22.83121 -46.31426 14446 ft 395 kts 208°
2026-05-07 08:37 -22.85497 -46.32919 14095 ft 394 kts 208°
2026-05-07 08:38 -22.87867 -46.34401 13737 ft 392 kts 208°
2026-05-07 08:38 -22.90233 -46.35877 13383 ft 391 kts 208°
2026-05-07 08:38 -22.92585 -46.37340 13040 ft 389 kts 208°
2026-05-07 08:38 -22.94888 -46.38773 12827 ft 375 kts 208°
2026-05-07 08:39 -22.97112 -46.40154 12586 ft 361 kts 208°
2026-05-07 08:39 -22.99254 -46.41484 12332 ft 348 kts 208°
2026-05-07 08:39 -23.01318 -46.42766 12094 ft 336 kts 208°
2026-05-07 08:39 -23.03308 -46.44003 11871 ft 324 kts 208°
2026-05-07 08:40 -23.05244 -46.45205 11509 ft 318 kts 209°
2026-05-07 08:40 -23.07145 -46.46388 11174 ft 312 kts 209°
2026-05-07 08:40 -23.09005 -46.47546 10923 ft 307 kts 209°
2026-05-07 08:40 -23.10854 -46.48698 10631 ft 305 kts 209°
2026-05-07 08:41 -23.12692 -46.49842 10395 ft 305 kts 209°
2026-05-07 08:41 -23.14535 -46.50989 10011 ft 304 kts 209°
2026-05-07 08:41 -23.16362 -46.52127 9635 ft 302 kts 209°
2026-05-07 08:41 -23.18179 -46.53260 9345 ft 301 kts 209°
2026-05-07 08:42 -23.19995 -46.54391 9089 ft 300 kts 209°
2026-05-07 08:42 -23.21789 -46.55523 8853 ft 298 kts 211°
2026-05-07 08:42 -23.23530 -46.56747 8588 ft 297 kts 213°
2026-05-07 08:42 -23.25245 -46.57994 8325 ft 296 kts 213°
2026-05-07 08:43 -23.26959 -46.59231 8069 ft 295 kts 213°
2026-05-07 08:43 -23.28649 -46.60439 7845 ft 294 kts 213°
2026-05-07 08:43 -23.30377 -46.61672 7532 ft 292 kts 213°
2026-05-07 08:43 -23.32049 -46.62864 7318 ft 291 kts 213°
2026-05-07 08:44 -23.33742 -46.64069 7075 ft 290 kts 213°
2026-05-07 08:44 -23.35421 -46.65263 6859 ft 288 kts 213°
2026-05-07 08:44 -23.37077 -46.66444 6689 ft 279 kts 213°
2026-05-07 08:44 -23.38662 -46.67575 6526 ft 267 kts 213°
2026-05-07 08:45 -23.40193 -46.68666 6266 ft 260 kts 213°
2026-05-07 08:45 -23.41729 -46.69680 5967 ft 257 kts 206°
2026-05-07 08:45 -23.43443 -46.70154 5578 ft 256 kts 180°
2026-05-07 08:45 -23.45194 -46.69910 5209 ft 254 kts 166°
2026-05-07 08:46 -23.46858 -46.69279 4833 ft 252 kts 145°
2026-05-07 08:46 -23.47925 -46.67889 4652 ft 234 kts 109°
2026-05-07 08:46 -23.48278 -46.66234 4435 ft 221 kts 89°
2026-05-07 08:46 -23.48210 -46.64674 4197 ft 208 kts 73°
2026-05-07 08:47 -23.47815 -46.63253 4159 ft 187 kts 67°
2026-05-07 08:47 -23.47429 -46.61902 4167 ft 186 kts 69°
2026-05-07 08:47 -23.47070 -46.60566 4161 ft 181 kts 70°
2026-05-07 08:47 -23.46738 -46.59306 4156 ft 169 kts 69°
2026-05-07 08:48 -23.46417 -46.58095 4159 ft 166 kts 69°
2026-05-07 08:48 -23.46093 -46.56887 4000 ft 166 kts 69°
2026-05-07 08:48 -23.45769 -46.55690 3829 ft 164 kts 70°
2026-05-07 08:48 -23.45448 -46.54500 3607 ft 164 kts 69°
2026-05-07 08:49 -23.45126 -46.53309 3409 ft 164 kts 70°
2026-05-07 08:49 -23.44805 -46.52124 3184 ft 163 kts 71°
2026-05-07 08:49 -23.44466 -46.50927 2909 ft 168 kts 71°
2026-05-07 08:49 -23.44137 -46.49693 2674 ft 173 kts 75°
2026-05-07 08:50 -23.43814 -46.48481 2502 ft 162 kts 71°
2026-05-07 08:50 -23.43515 -46.47393 2475 ft 126 kts 74°
2026-05-07 08:50 -23.43385 -46.46895 2475 ft 15 kts 73°
2026-05-07 08:50 -23.43382 -46.46886 2473 ft 0 kts 73°
2026-05-07 08:51 -23.43380 -46.46876 2473 ft 14 kts 73°
2026-05-07 08:51 -23.43312 -46.46625 2474 ft 34 kts 74°
2026-05-07 08:51 -23.43221 -46.46395 2474 ft 34 kts 56°
2026-05-07 08:52 -23.43062 -46.46206 2473 ft 32 kts 45°
2026-05-07 08:52 -23.42925 -46.46149 2469 ft 5 kts 343°
2026-05-07 08:52 -23.42918 -46.46151 2475 ft 2 kts 343°
2026-05-07 08:52 -23.42871 -46.46167 2469 ft 11 kts 342°
2026-05-07 08:53 -23.42800 -46.46191 2471 ft 9 kts 342°
2026-05-07 08:53 -23.42731 -46.46215 2472 ft 10 kts 342°
2026-05-07 08:53 -23.42710 -46.46222 2471 ft 0 kts 343°
2026-05-07 08:53 -23.42687 -46.46230 2469 ft 9 kts 343°
2026-05-07 08:54 -23.42623 -46.46278 2472 ft 7 kts 301°
2026-05-07 08:54 -23.42622 -46.46280 2474 ft 0 kts 300°
2026-05-07 08:55 -23.42616 -46.46299 2471 ft 8 kts 282°
2026-05-07 08:55 -23.42641 -46.46393 2472 ft 18 kts 246°
2026-05-07 08:55 -23.42690 -46.46555 2467 ft 27 kts 253°
2026-05-07 08:56 -23.42729 -46.46701 2473 ft 16 kts 253°
2026-05-07 08:56 -23.42742 -46.46749 2473 ft 3 kts 253°
2026-05-07 08:56 -23.42752 -46.46784 2473 ft 7 kts 253°
2026-05-07 08:56 -23.42771 -46.46849 2475 ft 13 kts 250°
2026-05-07 08:57 -23.42808 -46.46976 2474 ft 18 kts 253°
2026-05-07 08:57 -23.42815 -46.47000 2470 ft 3 kts 254°
2026-05-07 08:57 -23.42819 -46.47017 2473 ft 6 kts 254°
2026-05-07 08:57 -23.42817 -46.47110 2475 ft 15 kts 302°
2026-05-07 08:58 -23.42773 -46.47142 2471 ft 0 kts 340°
2026-05-07 08:58 -23.42756 -46.47149 2469 ft 7 kts 340°
2026-05-07 08:58 -23.42699 -46.47169 2472 ft 10 kts 343°
2026-05-07 08:58 -23.42624 -46.47193 2473 ft 13 kts 343°
2026-05-07 08:59 -23.42563 -46.47243 2473 ft 11 kts 286°
2026-05-07 08:59 -23.42566 -46.47270 2472 ft 3 kts 256°
2026-05-07 08:59 -23.42574 -46.47300 2469 ft 3 kts 254°
2026-05-07 08:59 -23.42579 -46.47318 2470 ft 0 kts 254°